Weather History for KMLP - January, 2013

Change the Weather History Date:

Wednesday, January 16, 2013

  Actual Average (K3TH) Record (K3TH)
Temperature  
Mean Temperature 24 °F -  
Max Temperature 28 °F 32 °F 41 °F (2000)
Min Temperature 19 °F 25 °F 5 °F (1997)
Degree Days  
Heating Degree Days 42    
Moisture  
Dew Point 19 °F    
Average Humidity 82    
Maximum Humidity 92    
Minimum Humidity 61    
Precipitation  
Precipitation 0.03 in - - ()
Sea Level Pressure  
Sea Level Pressure 30.53 in    
Wind  
Wind Speed 5 mph (SW)    
Max Wind Speed 9 mph    
Max Gust Speed -    
Visibility 10 miles    
Events      
Averages and records for this station are not official NWS values.
T = Trace of Precipitation, MM = Missing Value Source: NWS Daily Summary

Daily Weather History Graph

Daily Weather History Graph

Search for Another Location

Airport or City:

Trip Planner

Search our weather history database for the weather conditions in past years. The results will help you decide how hot, cold, wet, or windy it might be!

Date:

Astronomy

Jan. 16, 2013 Rise Set
Actual Time 7:24 AM PST 4:20 PM PST
Civil Twilight 6:50 AM PST 4:55 PM PST
Nautical Twilight 6:12 AM PST 5:33 PM PST
Astronomical Twilight 5:35 AM PST 6:10 PM PST
Moon 9:36 AM PST (1/16) 10:46 PM PST (1/16)
Length of Visible Light 10h 05m
Length of Day
8h 56m
Waxing Crescent, 29% of the Moon is Illuminated
Jan 16
Waxing Crescent
Jan 18
First Quarter
Jan 26
Full
Feb 3
Last Quarter
Feb 9
New

Hourly Weather History & Observations

Time (PST) Temp. Windchill Dew Point Humidity Pressure Visibility Wind Dir Wind Speed Gust Speed Precip Events Conditions
12:53 AM 21.0 °F 13.4 °F 17.1 °F 85% 30.51 in 10.0 mi SSW 5.8 mph - N/A   Clear
1:53 AM 21.0 °F 12.4 °F 17.1 °F 85% 30.52 in 10.0 mi South 6.9 mph - N/A   Clear
2:53 AM 21.9 °F 17.2 °F 18.0 °F 85% 30.53 in 10.0 mi SSW 3.5 mph - N/A   Clear
3:53 AM 21.9 °F 13.4 °F 19.0 °F 89% 30.53 in 10.0 mi SSW 6.9 mph - N/A   Clear
4:53 AM 21.9 °F 13.4 °F 18.0 °F 85% 30.53 in 10.0 mi WNW 6.9 mph - N/A   Clear
5:53 AM 21.0 °F 14.6 °F 18.0 °F 88% 30.53 in 10.0 mi West 4.6 mph - N/A   Clear
6:53 AM 19.9 °F 13.4 °F 18.0 °F 92% 30.53 in 10.0 mi WNW 4.6 mph - N/A   Clear
7:53 AM 19.9 °F 13.4 °F 18.0 °F 92% 30.55 in 10.0 mi Variable 4.6 mph - N/A   Clear
8:53 AM 23.0 °F 17.0 °F 19.9 °F 88% 30.56 in 10.0 mi WNW 4.6 mph - N/A   Clear
9:53 AM 24.1 °F 16.0 °F 21.9 °F 91% 30.55 in 10.0 mi NW 6.9 mph - N/A   Clear
10:53 AM 26.1 °F 21.9 °F 23.0 °F 88% 30.54 in 10.0 mi West 3.5 mph - 0.03 in   Clear
11:53 AM 28.0 °F - 23.0 °F 81% 30.51 in 10.0 mi Calm Calm - N/A   Clear
12:53 PM 28.0 °F - 24.1 °F 85% 30.51 in 10.0 mi Calm Calm - N/A   Clear
1:53 PM 28.0 °F - 23.0 °F 81% 30.52 in 10.0 mi Calm Calm - N/A   Clear
3:53 PM 26.1 °F 21.9 °F 23.0 °F 88% 30.54 in 10.0 mi South 3.5 mph - N/A   Clear
4:53 PM 25.0 °F 19.3 °F 19.9 °F 81% 30.55 in 10.0 mi SSW 4.6 mph - N/A   Clear
5:53 PM 24.1 °F 15.2 °F 21.0 °F 88% 30.56 in 10.0 mi South 8.1 mph - N/A   Clear
6:53 PM 24.1 °F 15.2 °F 21.0 °F 88% 30.57 in 10.0 mi South 8.1 mph - N/A   Clear
7:53 PM 25.0 °F 15.5 °F 18.0 °F 75% 30.56 in 10.0 mi SW 9.2 mph - N/A   Clear
8:53 PM 26.1 °F 16.8 °F 17.1 °F 69% 30.53 in 10.0 mi SW 9.2 mph - N/A   Clear
9:53 PM 27.0 °F 18.7 °F 15.1 °F 61% 30.52 in 10.0 mi SW 8.1 mph - N/A   Clear
10:53 PM 27.0 °F 18.7 °F 15.1 °F 61% 30.51 in 10.0 mi SW 8.1 mph - N/A   Clear
11:53 PM 27.0 °F 18.0 °F 15.1 °F 61% 30.50 in 10.0 mi SW 9.2 mph - N/A   Clear